Weather History for KLRJ - July, 2013

Change the Weather History Date:

Wednesday, July 17, 2013

  Actual Average Record
Temperature  
Mean Temperature 78 °F -  
Max Temperature 91 °F 89 °F 103 °F (1974)
Min Temperature 66 °F 65 °F 50 °F (2014)
Cooling Degree Days 14    
Growing Degree Days 28 (Base 50)    
Moisture  
Dew Point 65 °F    
Average Humidity 63    
Maximum Humidity 94    
Minimum Humidity 38    
Precipitation  
Precipitation 0.00 in - - ()
Sea Level Pressure  
Sea Level Pressure 30.23 in    
Wind  
Wind Speed 3 mph (SSW)    
Max Wind Speed 14 mph    
Max Gust Speed 21 mph    
Visibility 9 miles    
Events      
Averages and records for this station are not official NWS values.
T = Trace of Precipitation, MM = Missing Value Source: NWS Daily Summary

Daily Weather History Graph

Daily Weather History Graph

Search for Another Location

Airport or City:

Trip Planner

Search our weather history database for the weather conditions in past years. The results will help you decide how hot, cold, wet, or windy it might be!

Date:

Astronomy

Jul. 17, 2013 Rise Set
Actual Time 6:01 AM CDT 8:59 PM CDT
Civil Twilight 5:28 AM CDT 9:33 PM CDT
Nautical Twilight 4:45 AM CDT 10:15 PM CDT
Astronomical Twilight 3:54 AM CDT 11:05 PM CDT
Moon 3:48 PM CDT (7/17) 1:12 AM CDT (7/17)
Length of Visible Light 16h 04m
Length of Day
14h 57m
Waxing Gibbous, 67% of the Moon is Illuminated
Jul 17
Waxing Gibbous
Jul 22
Full
Jul 29
Last Quarter
Aug 6
New
Aug 14
First Quarter

Hourly Weather History & Observations

Time (CDT) Temp. Heat Index Dew Point Humidity Pressure Visibility Wind Dir Wind Speed Gust Speed Precip Events Conditions
12:15 AM 71.6 °F - 64.4 °F 78% 30.25 in 10.0 mi Calm Calm - N/A   Clear
12:35 AM 71.6 °F - 62.6 °F 73% 30.25 in 10.0 mi Calm Calm - N/A   Clear
12:55 AM 71.6 °F - 64.4 °F 78% 30.25 in 10.0 mi Calm Calm - N/A   Clear
1:15 AM 71.6 °F - 64.4 °F 78% 30.26 in 10.0 mi Calm Calm - N/A   Clear
1:35 AM 71.6 °F - 64.4 °F 78% 30.26 in 10.0 mi Calm Calm - N/A   Clear
1:55 AM 69.8 °F - 64.4 °F 83% 30.26 in 10.0 mi Calm Calm - N/A   Clear
2:15 AM 69.8 °F - 64.4 °F 83% 30.27 in 10.0 mi Calm Calm - N/A   Clear
2:35 AM 69.8 °F - 64.4 °F 83% 30.26 in 10.0 mi Calm Calm - N/A   Clear
2:55 AM 68.0 °F - 62.6 °F 83% 30.27 in 10.0 mi Calm Calm - N/A   Clear
3:15 AM 68.0 °F - 62.6 °F 83% 30.27 in 10.0 mi Calm Calm - N/A   Clear
3:35 AM 68.0 °F - 64.4 °F 88% 30.27 in 7.0 mi Calm Calm - N/A   Clear
3:55 AM 69.8 °F - 64.4 °F 83% 30.27 in 10.0 mi Calm Calm - N/A   Clear
4:15 AM 69.8 °F - 64.4 °F 83% 30.27 in 7.0 mi Calm Calm - N/A   Clear
4:35 AM 68.0 °F - 64.4 °F 88% 30.27 in 7.0 mi Calm Calm - N/A   Clear
4:55 AM 69.8 °F - 66.2 °F 88% 30.27 in 7.0 mi Calm Calm - N/A   Clear
5:15 AM 68.0 °F - 64.4 °F 88% 30.27 in 7.0 mi Calm Calm - N/A   Clear
5:35 AM 66.2 °F - 64.4 °F 94% 30.27 in 5.0 mi Calm Calm - N/A   Clear
5:55 AM 66.2 °F - 64.4 °F 94% 30.27 in 5.0 mi Calm Calm - N/A   Clear
6:15 AM 66.2 °F - 64.4 °F 94% 30.27 in 5.0 mi Calm Calm - N/A   Clear
6:35 AM 68.0 °F - 64.4 °F 88% 30.28 in 5.0 mi Calm Calm - N/A   Clear
6:55 AM 69.8 °F - 64.4 °F 83% 30.27 in 7.0 mi Calm Calm - N/A   Clear
7:15 AM 69.8 °F - 66.2 °F 88% 30.28 in 7.0 mi Calm Calm - N/A   Clear
7:35 AM 71.6 °F - 66.2 °F 83% 30.28 in 7.0 mi Calm Calm - N/A   Clear
7:55 AM 73.4 °F - 66.2 °F 78% 30.28 in 10.0 mi Calm Calm - N/A   Clear
8:15 AM 75.2 °F - 66.2 °F 73% 30.28 in 10.0 mi Calm Calm - N/A   Clear
8:35 AM 77.0 °F - 68.0 °F 74% 30.29 in 10.0 mi SSW 3.5 mph - N/A   Clear
8:55 AM 78.8 °F - 68.0 °F 69% 30.29 in 10.0 mi SSW 6.9 mph - N/A   Clear
9:15 AM 80.6 °F 83.2 °F 68.0 °F 65% 30.29 in 10.0 mi SSW 6.9 mph - N/A   Clear
9:35 AM 80.6 °F 83.9 °F 69.8 °F 70% 30.29 in 10.0 mi SSW 5.8 mph - N/A   Clear
9:55 AM 82.4 °F 86.3 °F 69.8 °F 66% 30.29 in 10.0 mi SW 4.6 mph - N/A   Clear
10:15 AM 82.4 °F 85.4 °F 68.0 °F 62% 30.28 in 10.0 mi SW 5.8 mph - N/A   Clear
10:35 AM 84.2 °F 87.3 °F 68.0 °F 58% 30.28 in 10.0 mi SSW 3.5 mph - N/A   Clear
10:55 AM 84.2 °F 87.3 °F 68.0 °F 58% 30.28 in 10.0 mi SSW 6.9 mph - N/A   Clear
11:15 AM 86.0 °F 88.2 °F 66.2 °F 51% 30.28 in 10.0 mi SSW 5.8 mph - N/A   Clear
11:35 AM 87.8 °F 90.4 °F 66.2 °F 49% 30.28 in 10.0 mi SW 6.9 mph - N/A   Clear
11:55 AM 87.8 °F 90.4 °F 66.2 °F 49% 30.28 in 10.0 mi SW 6.9 mph - N/A   Clear
12:15 PM 87.8 °F 89.4 °F 64.4 °F 46% 30.27 in 10.0 mi SSW 9.2 mph - N/A   Clear
12:35 PM 89.6 °F 91.1 °F 64.4 °F 43% 30.27 in 10.0 mi SSW 8.1 mph - N/A   Clear
12:55 PM 89.6 °F 92.2 °F 66.2 °F 46% 30.26 in 10.0 mi SW 4.6 mph - N/A   Scattered Clouds
1:15 PM 89.6 °F 91.1 °F 64.4 °F 43% 30.26 in 10.0 mi SW 8.1 mph - N/A   Scattered Clouds
1:35 PM 91.4 °F 93.2 °F 64.4 °F 41% 30.25 in 10.0 mi SSW 9.2 mph - N/A   Clear
1:55 PM 89.6 °F 91.1 °F 64.4 °F 43% 30.25 in 10.0 mi SSW 8.1 mph - N/A   Scattered Clouds
2:15 PM 91.4 °F 93.2 °F 64.4 °F 41% 30.24 in 10.0 mi SSW 12.7 mph 17.3 mph N/A   Scattered Clouds
2:35 PM 91.4 °F 92.1 °F 62.6 °F 38% 30.24 in 10.0 mi SSW 10.4 mph 18.4 mph N/A   Scattered Clouds
2:55 PM 91.4 °F 93.2 °F 64.4 °F 41% 30.23 in 10.0 mi SW 10.4 mph - N/A   Scattered Clouds
3:15 PM 91.4 °F 92.1 °F 62.6 °F 38% 30.22 in 10.0 mi SSW 11.5 mph - N/A   Scattered Clouds
3:35 PM 91.4 °F 92.1 °F 62.6 °F 38% 30.22 in 10.0 mi SSW 12.7 mph - N/A   Clear
3:55 PM 91.4 °F 92.1 °F 62.6 °F 38% 30.21 in 10.0 mi SW 13.8 mph 18.4 mph N/A   Clear
4:15 PM 91.4 °F 92.1 °F 62.6 °F 38% 30.21 in 10.0 mi SSW 11.5 mph 16.1 mph N/A   Clear
4:35 PM 91.4 °F 92.1 °F 62.6 °F 38% 30.20 in 10.0 mi SSW 11.5 mph 20.7 mph N/A   Clear
4:55 PM 91.4 °F 92.1 °F 62.6 °F 38% 30.20 in 10.0 mi SW 13.8 mph - N/A   Clear
5:15 PM 91.4 °F 92.1 °F 62.6 °F 38% 30.20 in 10.0 mi SSW 12.7 mph 18.4 mph N/A   Clear
5:35 PM 91.4 °F 93.2 °F 64.4 °F 41% 30.19 in 10.0 mi SW 13.8 mph - N/A   Clear
5:55 PM 91.4 °F 92.1 °F 62.6 °F 38% 30.19 in 10.0 mi SSW 12.7 mph - N/A   Clear
6:15 PM 89.6 °F 90.1 °F 62.6 °F 40% 30.18 in 10.0 mi SSW 12.7 mph - N/A   Clear
6:35 PM 89.6 °F 91.1 °F 64.4 °F 43% 30.18 in 10.0 mi SSW 10.4 mph - N/A   Clear
6:55 PM 89.6 °F 91.1 °F 64.4 °F 43% 30.17 in 10.0 mi SSW 11.5 mph - N/A   Clear
7:15 PM 89.6 °F 91.1 °F 64.4 °F 43% 30.17 in 10.0 mi SSW 10.4 mph - N/A   Clear
7:35 PM 87.8 °F 89.4 °F 64.4 °F 46% 30.17 in 10.0 mi SSW 8.1 mph - N/A   Clear
7:55 PM 87.8 °F 90.4 °F 66.2 °F 49% 30.17 in 10.0 mi SSW 8.1 mph - N/A   Clear
8:15 PM 86.0 °F 88.2 °F 66.2 °F 51% 30.17 in 10.0 mi South 6.9 mph - N/A   Clear
8:35 PM 84.2 °F 86.6 °F 66.2 °F 55% 30.16 in 10.0 mi South 5.8 mph - N/A   Clear
8:55 PM 82.4 °F 84.6 °F 66.2 °F 58% 30.16 in 10.0 mi South 5.8 mph - N/A   Clear
9:15 PM 82.4 °F 84.6 °F 66.2 °F 58% 30.16 in 10.0 mi South 4.6 mph - N/A   Clear
9:35 PM 80.6 °F 82.7 °F 66.2 °F 61% 30.16 in 10.0 mi SSW 3.5 mph - N/A   Clear
9:55 PM 78.8 °F - 66.2 °F 65% 30.16 in 10.0 mi Calm Calm - N/A   Clear
10:15 PM 78.8 °F - 66.2 °F 65% 30.16 in 10.0 mi South 3.5 mph - N/A   Clear
10:35 PM 77.0 °F - 66.2 °F 69% 30.16 in 10.0 mi Calm Calm - N/A   Clear
10:55 PM 78.8 °F - 66.2 °F 65% 30.16 in 10.0 mi South 3.5 mph - N/A   Clear
11:15 PM 77.0 °F - 66.2 °F 69% 30.15 in 10.0 mi Calm Calm - N/A   Clear
11:35 PM 75.2 °F - 66.2 °F 73% 30.15 in 10.0 mi South 4.6 mph - N/A   Clear
11:55 PM 75.2 °F - 66.2 °F 73% 30.15 in 10.0 mi Calm Calm - N/A   Clear